Wind_Speed
7 7 6 9 9 10 13 17 20 22 23 24 22 19 20 19 18 15 14 16 15 14 15 14 14 16 18 19 19 18 17 19 20 15 13 13 14 15 17 17 18 20 22
14 10 9 9 11 11 10 13 18 21 23 23 24 21 20 20 19 18 18 18 15 17 19 19 18 20 19 20 21 21 22 22 24 22 17 15 16 18 17 18 19 19 20
17 15 11 10 11 12 12 13 16 19 20 21 23 21 19 20 20 22 20 18 19 20 22 22 21 22 21 23 25 26 26 26 26 25 22 20 19 20 21 21 22 24 25
18 17 14 12 12 13 14 15 16 18 19 20 20 20 20 20 20 20 20 21 22 22 22 22 22 22 23 23 25 26 27 28 27 26 26 25 24 23 24 25 26 29 30
20 18 16 15 15 15 15 16 17 18 18 19 19 20 21 22 21 19 20 21 20 19 19 19 20 21 22 23 25 26 28 29 30 29 32 28 26 27 27 30 32 34 37
21 19 18 18 17 15 15 15 16 17 19 19 19 19 20 19 18 19 19 18 18 18 20 22 24 25 27 28 30 31 32 33 35 36 31 32 30 31 31 34 37 39 41
20 19 20 20 19 17 16 17 15 15 16 17 17 17 16 16 15 15 15 17 20 22 24 26 27 30 30 31 33 36 36 36 37 36 38 33 34 32 34 36 39 41 42
21 22 21 22 21 20 19 17 16 16 16 16 16 16 16 15 15 16 20 23 25 27 29 31 31 31 33 37 40 45 49 45 36 34 38 33 36 36 38 40 40 42 45
21 19 22 23 22 22 21 19 18 18 18 17 18 19 19 19 20 22 25 26 30 31 29 31 31 33 35 36 37 41 33 36 34 33 35 36 39 41 42 43 43 46 46
21 21 23 25 25 24 23 22 22 23 23 24 24 25 25 24 24 25 28 29 32 30 33 36 37 38 35 32 30 19 13 20 27 31 34 39 43 44 45 45 43 42 38
24 25 25 27 29 28 26 27 28 28 29 30 30 30 28 28 27 28 30 33 31 32 33 35 35 35 33 30 28 23 21 24 28 34 38 40 42 44 44 44 39 36 32
21 18 19 27 29 32 32 31 31 32 32 33 33 32 32 31 30 31 30 30 31 32 34 36 35 33 30 29 29 28 29 33 36 37 38 39 40 41 41 41 39 35 33
30 27 10 21 25 28 33 35 36 36 36 36 35 35 35 33 32 28 30 31 31 33 36 36 33 26 24 26 27 28 30 33 34 35 33 33 34 36 37 37 34 33 32
37 20 24 28 26 26 27 29 32 34 36 39 38 34 32 34 29 29 29 29 30 33 35 30 23 17 22 21 23 26 28 29 28 27 27 27 29 27 25 24 22 22 23
35 25 29 27 25 21 25 28 32 34 36 38 50 54 42 13 24 26 25 25 29 28 31 16 12 8 8 13 15 17 20 22 20 20 21 20 16 13 11 9 7 5 6
30 41 39 33 32 26 26 26 26 29 30 32 32 36 33 49 25 20 21 22 23 25 15 8 12 10 12 14 14 17 17 16 14 16 16 9 4 7 6 3 4 6 6
29 29 31 33 35 31 28 30 31 28 30 31 30 30 31 23 18 16 18 17 18 14 8 10 10 12 11 11 12 13 12 13 13 11 11 5 3 3 3 5 6 7 2
37 37 35 33 32 30 28 31 31 27 23 21 15 18 21 20 18 15 16 15 13 8 8 12 11 11 11 11 11 10 10 11 12 9 8 7 5 9 12 11 8 2 4
40 39 38 35 31 32 31 31 30 24 21 14 9 16 21 17 15 16 17 15 14 12 12 13 14 12 11 11 10 8 8 8 9 8 9 8 8 8 8 5 6 8 8
36 38 38 36 33 30 29 28 26 24 23 21 21 23 23 27 21 17 18 17 17 15 14 13 13 14 13 12 10 9 6 7 8 9 10 8 6 7 7 8 9 8 9
39 37 35 35 35 29 27 26 24 25 26 25 26 26 21 21 19 20 19 18 18 17 14 13 13 13 13 13 11 9 7 6 6 6 5 2 3 3 5 5 3 2 5
33 33 32 32 31 29 26 24 29 30 30 29 30 26 24 23 19 18 18 20 20 17 15 14 13 13 13 13 11 10 9 7 5 4 4 4 3 3 2 1 1 3 5
26 26 28 29 28 27 25 26 28 33 34 33 32 30 26 23 21 19 20 21 21 18 16 14 14 14 14 14 13 11 11 9 7 6 7 7 6 5 5 5 5 5 5
25 29 31 27 27 27 26 23 24 30 31 33 32 31 29 26 23 21 23 23 21 19 17 15 14 14 15 15 14 12 11 11 10 9 9 9 9 8 8 8 8 8 8
25 22 24 23 26 24 28 28 23 21 29 32 33 33 31 28 26 24 25 24 23 20 18 16 15 15 16 17 15 14 14 13 13 13 13 12 12 11 10 11 11 10 11
21 20 17 19 22 24 24 27 26 30 30 35 36 36 32 28 23 25 25 26 23 21 19 17 16 17 18 16 15 15 15 16 17 17 16 15 15 14 14 14 14 14 14
Wind_Direction
242 243 225 214 213 215 217 220 221 222 223 224 226 224 223 223 224 227 234 242 252 253 259 268 273 278 275 279 278 284 287 289 290 288 282 281 281 284 285 284 280 283 286
234 240 235 225 220 221 223 220 219 222 226 227 228 230 225 227 230 240 246 248 256 258 263 269 271 270 274 277 278 281 282 284 290 292 287 283 280 282 284 284 289 290 290
234 232 241 236 223 215 217 223 223 222 224 225 229 234 235 232 240 244 245 252 262 270 274 278 281 283 284 280 278 280 280 280 282 285 289 292 285 279 280 280 284 289 293
234 227 234 228 217 214 217 220 221 221 222 224 226 227 229 231 236 242 248 256 263 269 276 283 286 287 290 290 287 283 279 279 281 281 283 285 284 279 280 283 284 287 290
235 234 224 222 221 220 219 224 226 225 221 218 218 221 226 233 241 248 254 258 266 273 273 272 274 276 278 281 284 286 285 282 280 281 285 276 275 278 279 282 285 285 287
239 236 222 225 226 227 224 222 227 226 226 226 227 229 233 238 242 245 252 261 263 263 266 270 279 286 290 290 286 282 280 282 281 279 270 272 275 276 277 279 281 285 287
239 237 227 224 226 230 226 223 223 222 220 220 220 222 225 229 232 241 250 258 262 268 274 279 282 284 291 280 293 283 275 277 286 282 272 272 277 279 278 280 282 282 284
234 240 233 224 224 224 226 216 213 215 214 212 211 214 217 223 233 246 253 263 272 276 282 284 287 285 289 294 293 289 277 265 271 268 270 276 279 280 281 282 281 281 283
232 249 238 228 226 223 223 220 217 215 216 219 223 229 234 237 245 254 264 273 278 284 283 284 285 285 289 292 295 301 283 247 250 259 272 278 279 280 282 283 283 282 283
217 225 233 231 225 224 223 222 223 225 224 227 232 239 245 250 256 263 270 274 278 284 281 284 283 283 286 288 295 302 280 263 261 272 276 278 279 280 283 285 284 281 280
214 222 228 229 227 223 221 223 225 228 235 239 242 246 251 255 261 270 274 278 281 283 282 284 283 283 285 283 283 275 262 274 280 275 274 277 281 284 285 284 281 278 274
216 215 237 234 233 231 227 225 226 232 237 243 248 252 256 260 264 269 275 279 282 288 293 294 292 287 280 270 272 277 275 273 277 279 284 289 288 286 283 280 278 273 267
237 225 267 242 235 242 242 238 238 237 238 242 247 252 258 263 266 269 277 280 288 293 295 294 292 280 270 268 271 276 278 283 285 288 290 290 288 287 284 279 277 270 263
273 245 257 254 246 241 240 243 247 248 250 255 250 254 258 259 256 266 275 284 293 297 297 296 285 275 271 271 276 279 285 289 290 293 293 293 295 292 287 284 278 269 261
271 249 256 259 248 255 256 254 250 252 258 258 261 264 256 292 269 266 277 289 295 297 298 290 268 259 284 284 288 297 302 297 294 297 300 304 303 302 307 305 303 313 297
250 242 254 267 271 265 261 264 264 260 263 263 283 271 265 291 254 267 280 289 294 298 295 253 258 228 249 280 299 308 313 309 310 311 311 321 353 4 4 348 12 348 340
264 260 254 256 259 266 269 271 274 273 267 277 284 265 277 245 267 268 274 281 290 284 266 232 237 254 259 291 304 305 317 319 322 325 329 356 308 325 352 335 350 332 136
261 262 263 264 261 261 268 267 269 269 272 283 286 270 218 224 261 270 261 276 271 259 219 224 240 257 284 294 305 317 325 329 332 324 329 326 287 302 292 291 296 294 200
261 260 262 260 262 262 259 261 263 262 258 250 209 199 201 235 274 266 261 260 254 243 238 243 250 266 281 289 298 304 321 338 340 335 320 303 292 288 300 290 272 242 223
258 258 258 258 257 260 257 254 251 248 240 231 222 227 230 229 260 267 257 251 253 249 246 249 257 264 270 278 288 295 308 327 336 336 326 310 303 306 303 289 274 259 247
254 254 254 254 252 252 252 245 243 243 236 233 231 223 228 233 242 253 242 244 254 256 254 259 263 265 267 268 274 279 285 304 319 328 341 37 70 30 11 5 350 290 255
248 248 246 246 247 245 246 243 233 235 234 234 232 228 227 237 236 243 243 245 251 252 253 257 263 268 272 274 274 275 276 279 289 288 275 279 290 317 313 312 30 99 129
242 240 243 243 241 238 240 239 235 230 229 229 230 228 229 236 241 237 239 241 246 247 251 257 264 269 273 273 271 270 268 265 259 257 263 269 274 290 281 265 258 248 241
242 241 244 246 244 237 234 236 239 234 232 227 228 225 226 233 236 236 235 238 239 242 248 254 261 270 276 275 270 267 265 259 254 254 257 263 271 277 274 265 260 255 247
251 247 239 238 234 234 233 231 229 238 231 226 220 223 226 230 232 233 232 234 233 238 244 252 262 270 272 270 268 264 262 259 256 254 257 260 261 261 262 262 257 251 248
244 237 232 230 228 228 234 234 242 243 239 229 223 222 225 228 233 232 227 229 232 237 243 250 260 269 271 270 267 263 261 259 258 256 255 257 258 259 257 257 259 258 257
Height
3180 3181 3181 3181 3181 3182 3183 3184 3187 3190 3192 3195 3198 3200 3203 3206 3208 3209 3210 3211 3211 3212 3212 3213 3213 3212 3212 3212 3212 3212 3212 3211 3211 3213 3212 3211 3211 3210 3209 3209 3208 3208 3207
3178 3178 3179 3178 3179 3179 3180 3182 3184 3186 3188 3191 3194 3197 3200 3202 3204 3205 3207 3207 3208 3208 3208 3208 3208 3208 3208 3208 3207 3208 3207 3207 3205 3206 3207 3206 3206 3205 3204 3204 3203 3203 3203
3173 3175 3175 3175 3176 3177 3178 3179 3180 3182 3184 3186 3189 3193 3196 3198 3200 3202 3203 3203 3204 3205 3205 3204 3204 3203 3204 3203 3202 3202 3201 3201 3201 3200 3201 3201 3201 3199 3199 3199 3198 3197 3196
3168 3170 3171 3172 3172 3173 3174 3176 3177 3179 3181 3183 3186 3189 3192 3194 3196 3197 3199 3200 3201 3201 3201 3201 3201 3200 3200 3199 3197 3197 3196 3195 3194 3194 3194 3194 3194 3194 3193 3192 3191 3190 3189
3163 3165 3167 3168 3168 3169 3171 3172 3174 3176 3178 3180 3182 3185 3187 3189 3192 3194 3194 3195 3196 3197 3197 3196 3195 3194 3193 3193 3192 3192 3190 3190 3189 3187 3186 3186 3188 3187 3186 3184 3183 3182 3181
3159 3160 3162 3163 3165 3166 3167 3168 3170 3173 3175 3177 3179 3181 3183 3185 3187 3188 3189 3190 3191 3191 3191 3189 3189 3190 3189 3188 3187 3185 3184 3182 3183 3182 3181 3179 3181 3179 3178 3176 3174 3173 3172
3155 3156 3158 3159 3161 3163 3163 3164 3166 3169 3170 3173 3175 3177 3179 3181 3183 3184 3185 3185 3185 3184 3184 3184 3184 3182 3181 3179 3177 3175 3173 3172 3173 3172 3172 3172 3170 3170 3169 3168 3166 3164 3162
3150 3152 3154 3155 3157 3158 3160 3161 3163 3165 3167 3169 3171 3173 3174 3176 3178 3179 3179 3178 3178 3178 3177 3177 3175 3173 3171 3169 3166 3162 3159 3159 3161 3162 3162 3161 3160 3160 3158 3157 3155 3152 3150
3147 3149 3150 3151 3152 3154 3155 3158 3160 3161 3164 3166 3167 3168 3170 3171 3172 3172 3172 3172 3170 3170 3169 3168 3166 3164 3162 3159 3155 3149 3143 3143 3149 3152 3153 3151 3150 3149 3146 3144 3143 3139 3137
3143 3144 3146 3148 3149 3150 3152 3153 3155 3157 3159 3160 3162 3163 3164 3166 3167 3167 3166 3165 3163 3164 3160 3158 3156 3154 3152 3150 3147 3143 3140 3141 3144 3144 3143 3142 3140 3137 3134 3130 3129 3126 3124
3134 3139 3141 3143 3143 3144 3146 3147 3149 3151 3153 3155 3156 3157 3159 3159 3160 3160 3160 3156 3155 3153 3151 3148 3146 3144 3143 3141 3140 3139 3138 3137 3136 3135 3134 3131 3127 3123 3119 3116 3115 3115 3114
3124 3128 3137 3140 3139 3140 3140 3141 3141 3143 3145 3148 3150 3151 3153 3153 3152 3152 3151 3150 3148 3144 3141 3138 3135 3133 3132 3131 3131 3131 3131 3129 3128 3126 3122 3118 3114 3110 3106 3104 3103 3103 3103
3119 3115 3122 3134 3134 3134 3135 3137 3137 3136 3137 3140 3144 3145 3145 3147 3147 3145 3144 3143 3140 3136 3132 3128 3125 3123 3122 3123 3124 3124 3122 3120 3118 3114 3110 3105 3102 3098 3095 3092 3090 3091 3091
3103 3115 3124 3128 3125 3125 3128 3129 3129 3129 3130 3132 3133 3134 3136 3137 3137 3139 3137 3136 3132 3128 3123 3119 3116 3116 3116 3117 3117 3115 3113 3110 3107 3104 3100 3096 3092 3088 3084 3083 3081 3081 3081
3106 3110 3119 3116 3114 3118 3120 3119 3118 3120 3120 3124 3122 3120 3115 3101 3129 3128 3130 3128 3125 3121 3116 3112 3112 3112 3111 3111 3110 3108 3106 3103 3100 3097 3094 3089 3086 3083 3080 3078 3077 3077 3077
3099 3103 3105 3105 3106 3108 3109 3108 3110 3110 3111 3110 3110 3110 3109 3117 3119 3119 3121 3120 3118 3115 3110 3110 3109 3108 3108 3108 3105 3104 3101 3099 3096 3093 3089 3086 3084 3082 3081 3079 3078 3078 3076
3087 3090 3093 3095 3095 3097 3096 3097 3098 3099 3102 3104 3103 3103 3102 3107 3109 3110 3113 3113 3112 3110 3106 3107 3107 3107 3106 3104 3102 3100 3097 3095 3092 3089 3087 3085 3084 3083 3082 3080 3079 3079 3079
3076 3078 3080 3082 3082 3085 3088 3087 3090 3092 3091 3091 3092 3094 3095 3100 3104 3104 3108 3107 3106 3106 3104 3104 3104 3104 3103 3102 3100 3097 3095 3092 3090 3087 3085 3083 3083 3082 3080 3079 3079 3079 3079
3064 3066 3067 3070 3072 3075 3079 3080 3082 3084 3085 3086 3087 3090 3092 3095 3098 3100 3101 3101 3102 3103 3102 3101 3101 3101 3099 3098 3097 3095 3092 3090 3088 3085 3083 3082 3080 3080 3079 3078 3078 3078 3078
3054 3056 3057 3060 3063 3065 3069 3072 3075 3076 3079 3081 3083 3086 3088 3091 3094 3092 3094 3096 3099 3098 3098 3097 3097 3097 3096 3095 3093 3091 3089 3087 3086 3084 3082 3080 3079 3078 3077 3077 3076 3077 3077
3043 3045 3048 3050 3053 3057 3059 3063 3066 3068 3071 3073 3076 3079 3082 3083 3085 3087 3089 3091 3093 3093 3092 3092 3093 3092 3091 3090 3089 3088 3086 3085 3084 3083 3081 3080 3079 3079 3078 3076 3075 3074 3074
3032 3035 3038 3041 3045 3049 3051 3054 3058 3061 3063 3066 3069 3072 3074 3077 3078 3080 3083 3085 3086 3087 3087 3087 3088 3087 3087 3086 3084 3084 3083 3082 3082 3081 3081 3081 3080 3079 3078 3078 3077 3076 3076
3023 3026 3029 3032 3036 3039 3042 3045 3048 3051 3054 3057 3061 3065 3067 3071 3072 3074 3076 3078 3080 3081 3082 3082 3082 3082 3082 3082 3081 3080 3079 3080 3079 3079 3079 3079 3079 3078 3078 3077 3077 3077 3077
3016 3018 3020 3023 3027 3031 3033 3036 3039 3041 3043 3048 3052 3056 3060 3062 3065 3067 3069 3072 3073 3075 3076 3077 3077 3077 3077 3077 3077 3076 3076 3076 3076 3076 3076 3077 3076 3076 3076 3076 3076 3076 3076
3008 3010 3012 3014 3019 3023 3025 3027 3030 3033 3036 3039 3043 3048 3052 3055 3058 3060 3063 3065 3067 3068 3070 3071 3071 3072 3073 3072 3072 3071 3072 3072 3072 3072 3072 3073 3073 3073 3073 3073 3073 3073 3073
3001 3003 3006 3009 3012 3015 3018 3021 3023 3026 3029 3032 3036 3040 3043 3048 3050 3053 3056 3059 3061 3063 3064 3064 3065 3067 3068 3067 3066 3066 3066 3067 3068 3068 3068 3068 3069 3069 3069 3069 3070 3070 3070